map of ROI home
Great Circle Mapper logo
ROI - Airport
Location
City:  Roi Et, Thailand
ICAO / IATA:VTUV / ROI

Details
Type:Airport (Aerodrome, Airfield)
Latitude:1607'00"N (16.116761)
Longitude:10346'26"E (103.773797)
Datum:WGS 1984
Elevation:451 ft (137 m)
Variation:0.81W (WMM2015 magnetic declination)
-0.01 annual change
Runways:1
Longest:6890 × 148 ft (2100 × 45 m), paved

Time
Time Zone:UTC+7
Local Time:

Weather
METAR:VTUV 031300Z 32007KT 9999 SCT022 BKN100 BKN300 26/24 Q1008 A2975 INFO N RWY 36

Related Locations
Nearby:
Farthest:SJA: 12351 mi / 19877 km
San Juan de Marcona [San Juan de Marcona Airport], ICA, PE

Find:

   beyond  
but within

Other Information
Maps:
NOTAMs:
Links:
Sources:

  
flag of Thailand   

Sectional Chart

Flight Planning
at skyvector.com

Satellite Image

Google Maps Satellite view

 

Copyright © 2004-2015 Karl L. Swartz. All rights reserved.
The Great Circle Mapper name and logo are trademarks of the Great Circle Mapper.
All other trademarks mentioned herein belong to their respective owners.
Please see credits for attibutions and further copyright information.

  Follow gcmap on Facebook Follow gcmap on Twitter Follow gcmap on Google+

hCard Microformat

Geo Microformat